TimeEDT,TemperatureF,Dew PointF,Humidity,Sea Level PressureIn,VisibilityMPH,Wind Direction,Wind SpeedMPH,Gust SpeedMPH,PrecipitationIn,Events,Conditions,WindDirDegrees,DateUTC
12:58 AM,69.6,68.2,95,30.05,10.0,Calm,Calm,-,N/A,,Clear,0,2013-05-12 04:58:00
1:58 AM,70.3,69.6,98,30.03,10.0,Calm,Calm,-,N/A,,Clear,0,2013-05-12 05:58:00
2:58 AM,72.7,72.3,99,29.98,10.0,SE,4.6,-,N/A,,Partly Cloudy,130,2013-05-12 06:58:00
3:58 AM,73.6,73.6,100,29.98,10.0,Calm,Calm,-,N/A,,Clear,0,2013-05-12 07:58:00
4:58 AM,70.3,70.0,99,29.97,10.0,ESE,5.8,-,N/A,,Partly Cloudy,110,2013-05-12 08:58:00
5:58 AM,72.7,72.7,100,29.98,4.0,South,4.6,-,N/A,,Clear,170,2013-05-12 09:58:00
6:18 AM,73.4,73.4,100,29.98,2.5,South,3.5,-,N/A,,Clear,190,2013-05-12 10:18:00
6:28 AM,73.4,73.4,100,29.99,3.0,Calm,Calm,-,N/A,,Mostly Cloudy,360,2013-05-12 10:28:00
6:48 AM,75.2,75.2,100,30.00,10.0,SSW,4.6,-,N/A,,Overcast,200,2013-05-12 10:48:00
6:58 AM,74.3,74.3,100,30.02,8.0,SW,4.6,-,N/A,,Overcast,220,2013-05-12 10:58:00
7:33 AM,75.2,75.2,100,30.03,6.0,Calm,Calm,-,N/A,,Mostly Cloudy,0,2013-05-12 11:33:00
7:38 AM,75.2,75.2,100,30.03,6.0,Calm,Calm,-,N/A,,Mostly Cloudy,0,2013-05-12 11:38:00
7:53 AM,75.2,75.2,100,30.03,9.0,Calm,Calm,-,N/A,,Mostly Cloudy,0,2013-05-12 11:53:00
7:58 AM,75.2,75.2,100,30.04,10.0,Calm,Calm,-,N/A,,Mostly Cloudy,0,2013-05-12 11:58:00
8:03 AM,75.2,75.2,100,30.03,10.0,Calm,Calm,-,N/A,,Mostly Cloudy,0,2013-05-12 12:03:00
8:08 AM,75.2,75.2,100,30.04,10.0,Calm,Calm,-,N/A,,Scattered Clouds,0,2013-05-12 12:08:00
8:18 AM,77.0,77.0,100,30.04,10.0,Calm,Calm,-,N/A,,Mostly Cloudy,0,2013-05-12 12:18:00
8:23 AM,77.0,77.0,100,30.04,10.0,Calm,Calm,-,N/A,,Mostly Cloudy,0,2013-05-12 12:23:00
8:28 AM,77.0,77.0,100,30.04,10.0,NW,4.6,-,N/A,,Mostly Cloudy,320,2013-05-12 12:28:00
8:43 AM,77.0,77.0,100,30.04,10.0,NNW,3.5,-,N/A,,Scattered Clouds,340,2013-05-12 12:43:00
8:58 AM,78.6,78.6,100,30.05,10.0,Variable,2.3,-,N/A,,Partly Cloudy,0,2013-05-12 12:58:00
9:43 AM,80.6,78.8,94,30.05,10.0,WNW,4.6,-,N/A,,Mostly Cloudy,290,2013-05-12 13:43:00
9:58 AM,81.7,76.3,84,30.05,10.0,NNW,5.8,-,N/A,,Mostly Cloudy,330,2013-05-12 13:58:00
10:03 AM,82.4,75.2,79,30.04,10.0,WNW,4.6,-,N/A,,Scattered Clouds,290,2013-05-12 14:03:00
10:58 AM,81.1,75.2,82,30.05,10.0,WNW,5.8,-,N/A,,Scattered Clouds,300,2013-05-12 14:58:00
11:58 AM,83.3,73.2,71,30.06,10.0,West,5.8,-,N/A,,Mostly Cloudy,270,2013-05-12 15:58:00
12:28 PM,86.0,73.4,66,30.04,10.0,NW,6.9,-,N/A,,Mostly Cloudy,320,2013-05-12 16:28:00
12:33 PM,86.0,73.4,66,30.04,10.0,Variable,4.6,-,N/A,,Scattered Clouds,0,2013-05-12 16:33:00
12:58 PM,86.0,75.2,70,30.04,10.0,Variable,2.3,-,N/A,,Mostly Cloudy,0,2013-05-12 16:58:00
1:08 PM,84.2,73.4,70,30.03,10.0,SSW,9.2,-,N/A,,Mostly Cloudy,200,2013-05-12 17:08:00
1:58 PM,86.2,75.6,70,30.03,10.0,SSW,12.7,-,N/A,,Clear,200,2013-05-12 17:58:00
2:58 PM,87.1,73.4,64,30.02,10.0,WSW,10.4,19.6,N/A,,Partly Cloudy,250,2013-05-12 18:58:00
3:58 PM,86.5,72.1,62,30.02,10.0,WSW,13.8,-,N/A,,Clear,240,2013-05-12 19:58:00
4:58 PM,85.3,69.8,60,30.01,10.0,WNW,10.4,-,N/A,,Clear,290,2013-05-12 20:58:00
5:58 PM,82.2,70.7,68,30.01,10.0,NW,11.5,16.1,N/A,,Clear,310,2013-05-12 21:58:00
6:58 PM,79.3,70.3,74,30.01,10.0,NW,4.6,-,N/A,,Scattered Clouds,310,2013-05-12 22:58:00
7:58 PM,77.4,69.1,76,30.03,10.0,NW,5.8,-,N/A,,Clear,320,2013-05-12 23:58:00
8:58 PM,74.8,69.3,83,30.05,10.0,WNW,3.5,-,N/A,,Clear,300,2013-05-13 00:58:00
9:58 PM,74.1,69.6,86,30.06,10.0,NW,5.8,-,N/A,,Clear,310,2013-05-13 01:58:00
10:58 PM,73.8,69.1,85,30.07,10.0,NW,4.6,-,N/A,,Clear,320,2013-05-13 02:58:00
11:58 PM,72.9,69.3,88,30.07,10.0,WNW,4.6,-,N/A,,Mostly Cloudy,300,2013-05-13 03:58:00